Regional Weather Roundup
Issued by NWS Newport/Morehead, NC

Current Version | Previous Version | Graphics & Text | Print | Product List | Glossary Off
Versions: 1 2 3 4 5 6 7 8 9 10 11 12 13 14 15 16 17 18 19 20 21 22 23 24 25 26 27 28 29 30 31 32 33 34 35 36 37 38 39 40 41 42 43 44 45 46 47 48 49 50

000
ASUS42 KMHX 250625
RWRMHX
WEATHER ROUNDUP FOR EASTERN NORTH CAROLINA
NATIONAL WEATHER SERVICE NEWPORT/MOREHEAD CITY NC
200 AM EDT THU MAY 25 2017

NOTE: "FAIR" INDICATES FEW OR NO CLOUDS BELOW 12,000 FEET
WITH NO SIGNIFICANT WEATHER AND/OR OBSTRUCTIONS TO VISIBILITY

NCZ015>017-031-032-045>047-102-103-250700-
NORTH COAST

CITY           SKY/WX    TMP DP  RH WIND       PRES   REMARKS
EDENTON        CLOUDY    73  69  88 S14G20    29.55F
ELIZABETH CITY CLOUDY    71  70  96 S10       29.55F
KITTY HAWK     DRIZZLE   70  70 100 CALM      29.56F
MANTEO         CLOUDY    70  68  92 S14       29.57F

$$

NCZ045>047-081-094-103-104-250700-
CENTRAL COAST

CITY           SKY/WX    TMP DP  RH WIND       PRES   REMARKS
FRISCO         NOT AVBL

$$

NCZ095-097-098-100-101-250700-
SOUTHERN COAST

CITY           SKY/WX    TMP DP  RH WIND       PRES   REMARKS
BEAUFORT       CLOUDY    75  72  90 S16G23    29.57F
CEDAR ISLAND   NOT AVBL
JACKSONVILLE   CLOUDY    74  71  91 S20G28    29.53F
PINEY ISLAND   CLOUDY   N/A N/A N/A S13G20    29.57F
WILMINGTON     CLOUDY    74  70  87 S15G26    29.53F


$$

NCZ011>013-027>030-043-044-078>080-089-090>093-098-250700-
COASTAL PLAIN

CITY           SKY/WX    TMP DP  RH WIND       PRES   REMARKS
AHOSKIE          N/A     67  66  99 SE3       29.54F
CLINTON        CLOUDY    71  69  93 S6        29.53S
ELIZABETHTOWN  CLOUDY    72  69  91 S8        29.53R
GOLDSBORO      CLOUDY    72  72 100 S6        29.50F
GREENVILLE     CLOUDY    72  70  94 S9        29.57F
HAVELOCK       CLOUDY    74  69  85 S15G22    29.56F
KENANSVILLE    RAIN      70  68  94 S7        29.53F FOG
KINSTON        LGT RAIN  71  69  92 S7        29.54S
NEW BERN       CLOUDY    73  70  90 S14G22    29.55F
RICHLANDS      LGT RAIN  71  68  90 S10       29.54F
ROCKY MOUNT    CLOUDY    69  69 100 S8        29.51F
WASHINGTON     DRIZZLE   71  69  93 S7        29.54F
WHITEVILLE     CLOUDY    71  69  94 S6        29.53S

$$

AMZ130-135-150-152-154-156-158-170-250-252-270-ANZ085-086-088-633-658-670-250700-
MARINE OBSERVATIONS

STATION/POSITION TIME  TEMP    WIND        PRES    WAVE   SWELL
                       AIR SEA DIR/SP/G            HT/PER HT/PER
                 (UTC) (F)     (DEG/KT/KT) (MB)    (FT/S) (FT/S)
CHESAPEAKE LIGHT NOT AVBL
64 E VA BEACH    0550   68 64  160/ 16/ 17 1003.4    5/ 8   3/ 8
DUCK             0600   68 65  140/ 15/ 17 1000.6
2 E DUCK         0600      65                N/A     4/ 5
OREGON INLET     0600   70 68  130/ 11/ 17 1001.5
13E OREGON INLT  0548      65                N/A     6/ 8   5/ 8
HATTERAS CG      0600   73 74  150/ 17/ 21 1001.8
DIAMOND BUOY     0550   74 74  170/ 19/ 23 1002.7    6/ 8   3/ 8
CAPE LOOKOUT     0600   74     170/ 23/ 28 1001.3
BEAUFORT LAB     0600   75 72  180/ 19/ 23 1000.5
30 SE NEW RVR IN 0608   74 76  200/ 23/ 31 1001.4
30 SE NEW RVR IN 0613      75                N/A     8/ 7   2/12
27 SE WRIGHTSVLE 0608   73 75  180/ 21/ 29  999.9
5 SE WRIGHTSVLE  0608   75 74  180/ 14/ 27 1000.6
225 S CAPE HAT   0550   71 77  210/ 29/ 35 1008.5   10/ 7
41 SE CHARLESTON 0610   76 76  220/ 25/ 31 1001.4

$$




USA.gov is the U.S. government's official web portal to all federal, state and local government web resources and services.